Weather in Miloslavskoe

Russia / Ryazan Oblast     53°34′45″N   39°27′01″E
temp.,
°C
wind,
m/s
gust,
m/s
humid.,
%
clouds,
%
prec.,
mm/h
press.,
hPa
HPBL,
m
4 december, sat
sat400:00+5sw71393100 2.6 1001950
03:000wnw61196100 5.6 1004690
06:000w611875 0.1 1006584
09:00−2wsw6128435 0.1 1008558
12:00−2w71184100 0.0 1010751
15:00−1w71072100 0.1 10111001
18:00−2w510765 0.0 1013549
21:00−2w498447 0.0 1014392
5 december, sun
sun500:00−2wsw37885 0.0 1015260
03:00−3sw369125 0.0 1016199
06:00−3sw249498 0.0 1016136
09:00−2sw2491100 0.0 1017202
12:00−1ssw3482100 0.0 1017268
15:00−1s2482100 0.0 1018203
18:00−2s24847 0.0 1018108
21:00−3s2583100 0.0 101998
6 december, mon
mon600:00−3sse2480100 0.0 1019107
03:00−3sse2578100 0.0 1019133
06:00−2se2575100 0.0 1019157
09:00−2ese3774100 0.0 1020229
12:00−1ese386987 0.0 1020351
15:00−2ese367279 0.0 1020230
18:00−2se478096 0.0 1021289
21:00−2se4893100 0.0 1020336
7 december, tue
tue700:00−2se4994100 0.1 1019317
03:00−2se51194100 0.1 1018397
06:00−1ese71497100 1.3 1016425
09:000se81696100 3.4 1014528
12:00+2sse61498100 0.3 1013398
15:00+2sse51299100 0.8 1012297
18:00+3s51399100 0.1 1012275
21:00+4s61599100 1.6 1012311
8 december, wed
wed800:00+3s51294100 0.1 1012259
03:00+3s51291100 0.1 1012252
06:00+2s41094100 0.0 1012209
09:00+1sse3894100 0.0 1014168
12:00+2sse2694100 0.0 1014187
15:00+2ese2293100 0.0 101329
18:00+1ene2293100 0.0 101431
21:00+1ne4797100 0.0 1015197